Volver al catálogo

HAWK-C

ActivoCienciaSSO
NORAD 43799·PAYLOAD·🇺🇸 United States

Lanzado Dec 3, 2018 desde Vandenberg Space Force Base

Loading…

Próximos Pases (próximas 24 horas)

TLE

ActualizadoSource: Space-Track

Época: Sep 14, 2026, 14:32 UTC

1 43799U 18099AT  26257.60602723  .00006125  00000-0  21331-3 0  9994
2 43799  97.3792 310.0589 0038300 330.6146  29.2941 15.29336755427572

Sigue HAWK-C en tiempo real con AllMySat

Download on the App Store